Theta_e
310 310 312 313 314 315 314 314 312 313 313 314 315 315 315 315 313 306 302 307 308 312 312 303 302 301 300 298 300 300 290 287 289 291 293 299 297 301 306 307 309 311 311 321 326
309 310 310 311 313 313 313 313 312 312 313 314 314 315 315 314 306 302 309 313 312 314 301 297 295 297 293 294 296 292 287 287 292 292 291 295 297 298 300 303 304 307 313 315 316
310 311 310 312 312 312 312 312 312 312 313 314 314 315 314 312 300 300 311 312 312 310 303 301 298 295 291 293 292 291 285 290 290 292 293 292 292 296 295 297 303 304 307 309 308
311 311 312 312 312 311 312 312 313 313 314 314 314 314 313 307 288 302 308 307 309 306 301 298 295 290 287 286 291 286 290 290 291 292 290 289 291 289 290 291 297 300 304 304 305
311 311 311 311 312 313 314 314 314 314 314 314 314 313 308 297 297 305 306 305 304 301 297 294 291 289 286 288 289 287 288 291 292 291 290 291 288 288 288 291 293 294 298 300 302
310 310 310 311 312 313 314 313 313 313 313 313 313 312 302 291 305 306 304 303 301 299 296 296 292 293 289 288 287 289 289 289 290 290 291 289 288 289 289 291 291 292 293 294 297
310 310 310 311 312 312 312 312 312 312 312 312 312 308 299 296 305 305 304 301 302 299 295 297 297 293 292 288 292 290 285 288 289 290 289 291 285 286 291 292 290 291 293 293 295
311 311 311 312 312 311 311 311 311 311 311 311 309 304 294 305 304 301 300 298 300 301 299 300 299 294 291 292 289 285 285 279 287 290 290 289 280 288 291 290 289 290 291 293 294
311 312 311 310 310 310 310 311 311 309 307 307 304 300 291 304 296 298 298 295 297 298 300 300 297 291 291 284 281 283 276 280 282 290 289 286 281 288 292 291 288 289 289 291 293
311 311 310 309 309 310 310 310 307 304 305 302 300 294 296 289 295 296 298 297 294 295 294 293 290 285 284 282 273 275 278 281 280 286 288 284 283 287 290 290 289 287 288 290 291
311 311 311 310 309 309 305 305 297 295 296 290 289 288 290 295 298 295 298 295 295 292 285 289 284 279 282 284 283 282 280 279 283 287 285 283 284 287 289 289 288 289 290 290 291
311 310 309 309 308 307 305 296 294 295 286 293 290 290 293 295 288 292 297 290 287 282 286 283 280 285 287 287 285 283 280 280 284 287 285 283 282 286 289 289 289 289 289 291 291
311 311 308 309 307 305 299 296 301 298 287 288 288 288 290 292 286 288 293 291 286 283 283 280 283 288 286 284 282 282 281 280 280 284 285 283 280 283 288 290 290 291 291 291 291
311 312 308 308 302 302 297 300 301 299 282 282 285 289 290 290 285 294 295 291 288 283 283 282 287 286 285 282 284 279 286 285 283 281 275 284 273 281 284 285 288 289 289 290 291
311 310 308 304 302 298 298 300 299 295 272 282 283 293 290 286 287 291 296 292 284 284 284 280 283 283 281 283 286 282 287 285 284 281 280 280 275 278 284 282 284 286 288 289 291
311 308 305 303 302 298 300 298 294 281 270 273 284 282 281 286 287 289 290 293 291 285 286 284 289 287 286 288 287 288 285 284 283 278 271 275 276 272 279 282 284 286 287 288 290
307 302 302 300 295 299 298 293 283 272 279 273 276 281 280 280 283 285 283 284 282 276 275 280 282 288 289 283 287 284 279 273 271 270 265 272 274 274 281 283 284 285 287 289 289
303 301 298 297 298 298 295 285 272 271 273 280 280 280 278 281 281 281 282 280 285 282 276 271 270 279 287 284 281 280 280 274 268 269 272 276 269 273 282 284 286 286 287 289 291
303 299 297 295 295 295 289 278 273 274 279 278 280 275 276 281 279 281 281 280 283 283 275 273 272 285 286 288 285 278 274 282 274 276 272 271 276 283 282 282 283 286 288 288 290
298 296 292 295 293 292 285 279 274 280 281 280 273 277 270 274 276 276 278 283 282 284 285 278 271 279 284 288 286 282 283 273 276 265 263 270 271 271 276 277 281 285 286 287 288
297 290 293 294 292 287 281 277 273 281 282 278 277 273 277 277 277 276 277 282 284 283 285 283 277 276 284 280 277 278 277 279 278 277 271 270 269 277 277 278 279 281 284 285 285
294 285 293 292 285 283 280 276 281 281 284 281 281 279 278 278 277 276 276 280 286 283 279 283 280 275 276 284 284 281 277 279 274 271 273 275 270 279 280 280 280 280 282 283 284
289 290 293 291 282 280 276 275 279 280 280 280 279 281 282 278 274 278 279 286 286 283 277 281 277 273 275 279 282 277 278 279 280 278 270 269 269 279 279 279 280 279 280 281 282
290 284 286 287 285 282 277 276 275 282 281 282 281 282 280 275 279 276 279 284 286 283 287 285 281 277 273 276 279 275 276 278 276 271 272 270 271 274 275 277 278 279 280 280 280
291 285 285 280 282 282 282 279 276 274 281 283 279 279 277 271 276 272 280 280 284 284 283 279 268 276 277 280 281 278 275 276 274 275 271 273 271 274 275 276 278 280 280 279 279
285 283 285 282 283 281 281 279 277 278 279 278 276 280 280 272 278 276 278 278 277 279 279 279 267 273 268 280 280 277 277 276 277 276 277 276 273 278 278 278 278 278 279 279 279
290 289 288 283 282 281 281 281 280 281 282 283 281 279 278 280 281 282 282 281 280 277 276 274 268 267 269 278 278 270 276 275 276 278 277 274 277 279 277 277 277 278 279 279 279
Wind_Speed
8 8 9 11 13 11 11 12 13 13 14 16 16 16 16 18 20 8 12 8 8 12 12 11 10 12 8 4 3 8 7 10 13 15 18 16 13 17 7 4 5 6 6 7 7
4 9 11 10 12 13 13 14 14 13 14 16 16 17 18 17 15 6 5 8 10 16 11 11 12 11 6 4 3 5 8 9 10 11 14 16 15 18 11 11 1 5 1 11 8
5 9 9 11 13 15 14 14 13 13 14 15 17 17 16 16 11 6 2 7 10 13 10 10 10 9 6 7 5 5 13 15 19 18 15 14 17 16 16 12 4 7 6 8 7
7 8 10 12 13 13 12 12 13 13 14 14 15 16 17 10 7 6 3 4 9 9 11 10 10 9 8 9 13 13 13 15 18 16 14 16 18 16 18 16 17 17 12 3 7
6 10 12 12 12 14 14 14 14 15 15 14 13 11 8 6 4 7 2 5 10 7 9 10 10 9 8 11 14 14 16 16 16 15 13 14 17 20 25 15 17 20 16 8 5
5 9 11 12 14 16 14 13 13 14 14 13 12 10 6 9 2 4 4 7 9 9 9 7 6 10 9 11 11 13 18 17 18 19 19 19 19 16 20 12 15 17 21 19 9
9 10 12 13 12 14 14 14 15 15 14 13 11 7 8 8 7 7 6 6 6 7 8 9 8 6 9 13 10 13 18 19 21 20 21 19 23 26 21 21 24 22 17 14 14
11 11 11 11 13 15 16 16 16 15 15 12 8 5 5 3 5 6 6 10 5 3 7 7 6 10 10 11 15 17 12 10 11 12 8 12 20 21 16 17 24 20 18 17 17
10 10 9 12 13 15 15 16 14 11 8 6 5 4 2 3 5 9 8 8 9 9 4 6 6 6 6 6 9 10 9 13 13 11 14 5 16 15 17 11 10 12 12 14 12
8 9 11 10 12 14 15 16 7 5 6 3 2 3 1 8 9 11 4 4 5 7 6 2 3 3 3 5 8 7 9 11 13 7 12 12 23 15 17 18 13 8 8 8 9
8 9 10 6 10 12 10 1 2 3 5 4 6 5 6 12 7 4 4 6 6 5 2 3 6 10 12 14 20 20 21 23 21 18 20 20 23 21 17 16 17 13 12 11 11
9 9 7 7 5 13 5 5 5 1 5 3 4 6 3 4 9 8 2 4 3 7 9 5 13 18 16 16 20 18 20 24 23 18 17 17 26 22 20 18 17 14 13 14 10
7 8 5 3 4 4 8 7 4 4 4 1 1 3 4 6 7 7 2 7 3 4 8 11 15 21 19 16 17 17 18 22 25 22 17 20 31 23 20 19 19 20 19 16 13
9 8 2 2 3 1 4 4 3 3 0 6 1 2 4 8 5 9 2 3 2 6 7 11 13 11 16 18 15 18 13 18 19 13 11 8 20 9 9 9 16 20 17 16 16
7 4 3 2 1 2 3 3 3 1 2 7 5 2 9 3 8 2 2 4 9 12 2 10 17 17 16 14 16 13 15 12 15 13 12 5 8 7 3 11 12 12 10 16 15
6 7 4 2 3 3 3 2 2 0 2 6 4 7 9 4 7 6 7 5 10 9 15 21 15 14 7 15 17 20 16 16 10 2 6 12 12 4 4 6 11 18 11 9 13
11 8 3 3 3 4 3 2 1 5 1 9 5 8 10 7 8 9 9 9 5 9 10 15 2 4 6 11 8 8 12 4 3 4 7 3 7 11 14 19 16 17 17 16 7
11 5 7 5 3 4 2 2 7 2 2 4 4 11 3 9 5 11 10 7 9 7 11 7 11 4 4 7 8 13 6 5 6 4 7 5 7 1 12 17 17 18 17 14 8
10 2 3 3 4 3 1 5 2 2 2 6 8 4 4 5 4 7 6 7 7 9 6 6 7 10 13 7 3 8 5 12 7 10 7 5 6 2 19 18 20 18 10 4 9
2 2 2 3 4 1 4 3 2 1 2 2 3 5 4 8 8 7 6 4 7 10 6 4 8 6 13 2 5 10 12 4 4 4 4 4 6 11 20 20 19 14 11 11 10
2 1 2 3 2 4 2 3 1 2 0 2 3 2 3 5 7 5 5 6 4 8 10 6 3 12 7 7 18 11 10 4 3 4 4 5 4 14 16 13 13 14 13 11 10
3 0 2 3 3 1 2 3 1 2 3 2 1 3 3 5 5 4 4 2 5 4 9 3 5 6 1 10 14 16 15 9 5 6 4 5 4 17 16 12 14 15 14 13 13
3 2 1 1 2 3 1 1 1 2 2 1 2 4 4 3 5 5 4 4 5 5 4 7 4 6 8 5 9 12 24 22 6 1 13 6 5 13 17 14 15 16 16 14 13
2 2 2 3 2 5 5 3 3 3 2 3 3 3 4 3 5 6 5 4 8 2 12 3 5 3 4 6 10 17 25 20 15 5 5 9 12 19 20 17 18 18 16 15 13
1 2 1 4 3 4 2 6 4 4 3 5 2 5 1 3 3 4 4 7 5 9 7 3 3 5 8 4 4 15 19 20 17 14 9 10 10 16 15 14 16 13 13 14 14
5 5 2 2 5 6 2 6 6 3 6 4 4 3 5 6 4 4 5 3 3 7 7 6 4 3 5 4 6 10 20 18 13 15 5 10 10 10 11 13 17 16 14 16 15
2 2 2 6 4 3 5 6 6 8 6 3 3 2 7 9 4 5 5 8 9 5 4 4 3 5 5 3 4 6 14 12 9 15 9 9 4 9 15 16 17 15 14 15 14
Wind_Direction
3 356 343 345 348 341 344 345 351 344 338 335 340 344 341 336 325 9 46 18 7 333 304 335 359 353 309 254 258 295 257 259 262 257 276 282 295 299 317 55 38 339 315 102 64
346 349 346 342 346 353 346 341 338 335 332 335 337 339 340 332 320 83 101 21 357 339 357 351 349 344 325 291 284 244 252 266 275 314 323 328 338 329 340 319 97 281 355 68 43
328 337 344 344 343 339 334 334 333 330 328 331 333 336 332 318 302 79 90 5 346 331 331 315 319 330 300 302 252 246 257 282 297 310 319 322 311 315 309 292 286 280 287 36 19
339 350 351 340 336 337 334 330 328 325 324 325 327 340 322 310 10 76 40 347 314 287 313 317 333 319 306 287 292 286 280 282 293 297 305 300 306 301 296 295 317 310 322 345 336
345 350 344 339 332 327 321 317 318 325 329 331 342 352 327 336 356 114 2 330 310 332 322 329 319 319 303 316 318 288 277 281 282 287 282 285 279 283 276 282 293 298 293 289 278
353 352 344 329 326 323 328 328 329 327 324 326 327 323 309 301 18 344 3 326 346 342 329 310 314 325 293 282 277 292 290 292 287 281 278 272 266 256 260 290 265 254 270 278 261
352 340 328 325 331 327 322 320 320 316 313 311 312 304 291 281 347 353 329 298 304 306 307 312 320 288 309 306 298 320 306 292 276 273 260 249 256 252 264 254 256 259 256 251 254
344 334 326 323 318 317 314 313 314 311 309 308 307 275 261 67 344 301 334 326 294 272 284 299 310 286 267 279 290 283 281 274 284 300 262 233 253 254 264 245 241 242 244 247 251
324 321 325 316 316 317 313 309 305 305 302 287 238 239 306 175 333 331 318 308 315 288 239 297 305 270 286 260 276 230 264 250 285 285 256 245 258 256 256 268 267 222 226 225 233
319 319 316 318 328 323 318 300 307 285 230 220 217 256 239 336 336 315 295 300 288 317 298 230 258 251 233 219 257 276 264 258 261 252 269 257 258 258 269 286 281 271 267 243 235
321 314 322 326 335 327 322 257 272 159 7 34 329 287 324 335 292 264 288 304 252 288 273 254 251 243 246 235 251 266 274 276 269 278 292 287 263 262 265 265 264 258 255 241 237
320 345 339 342 350 323 283 45 53 16 319 123 281 271 302 354 304 338 335 306 62 304 319 291 259 261 265 281 276 256 267 271 278 263 263 269 267 273 263 254 258 258 259 254 233
319 324 312 328 318 310 66 58 5 343 256 80 348 311 341 318 328 294 344 303 201 270 265 245 263 305 292 288 276 262 264 273 270 283 270 273 274 267 260 247 248 250 251 255 246
306 301 253 258 279 353 59 26 15 344 324 354 348 80 298 304 260 327 70 285 310 286 301 273 263 286 313 295 288 283 271 274 271 272 270 211 288 229 281 241 232 241 238 238 238
296 154 140 299 23 42 26 343 350 262 48 325 327 21 321 339 299 172 220 267 265 266 191 258 303 301 296 285 301 275 299 284 284 269 292 219 262 113 290 282 267 249 235 225 225
151 135 154 174 79 36 340 327 248 32 348 332 311 335 356 322 317 301 332 217 243 280 258 268 270 280 261 302 299 286 283 273 251 234 248 220 206 342 265 328 350 337 321 276 205
116 81 37 12 45 336 311 229 9 64 328 321 337 333 330 321 329 359 317 334 22 330 336 318 326 14 29 307 310 337 292 285 223 206 230 330 208 247 15 351 327 304 302 304 238
122 92 58 59 0 317 255 40 54 222 357 334 313 312 2 2 2 341 335 345 51 3 305 351 331 358 298 304 300 312 314 284 289 299 311 177 237 264 3 337 323 303 279 288 332
134 98 77 28 336 289 58 50 160 95 351 346 307 339 338 10 342 334 328 7 12 17 348 331 287 327 307 350 331 316 297 305 282 260 259 215 32 134 347 340 329 305 236 168 58
127 143 70 330 320 243 68 105 116 8 344 302 352 33 317 337 340 351 333 16 357 7 349 302 292 275 304 16 304 280 297 299 218 293 287 33 61 330 344 345 347 356 74 90 96
146 68 69 324 276 50 82 101 155 203 288 13 3 323 315 331 324 309 299 300 39 334 323 272 215 299 330 4 355 348 352 271 281 291 324 333 87 349 341 349 359 1 35 51 61
136 173 49 321 59 28 101 115 198 156 159 291 332 260 291 322 296 296 284 268 341 309 342 336 295 288 326 40 24 14 3 352 334 4 315 299 80 355 346 2 24 20 33 43 47
132 103 133 334 171 124 128 114 214 182 170 211 219 240 318 290 301 294 306 279 351 30 344 337 299 297 317 3 23 17 9 11 338 335 9 359 348 347 355 15 29 32 30 35 37
123 142 2 47 295 128 146 169 155 241 227 156 288 316 286 252 226 293 299 307 332 63 345 284 276 339 326 341 359 7 8 9 14 6 358 23 341 6 358 13 24 30 29 34 38
271 209 145 163 230 126 168 154 144 156 221 175 243 231 238 291 273 234 282 315 343 12 349 63 289 340 287 216 25 19 11 2 19 4 30 354 15 5 5 359 23 30 37 40 44
160 149 156 91 118 118 206 205 160 136 160 211 205 261 218 205 230 293 350 333 312 337 347 3 298 327 286 247 201 18 7 1 18 12 358 29 41 12 7 24 26 27 31 36 36
174 83 116 159 162 165 197 172 186 138 222 288 209 327 250 253 269 274 295 292 284 301 314 347 5 359 287 339 36 6 356 345 340 16 335 9 13 21 29 31 25 19 30 33 32